[ hide orbit diagram ]
For accurate long-term ephemerides, please instead use our Horizons system.This orbit viewer was implemented using two-body methods, and hence should not be used for determining accurate long-term trajectories (over several years or decades) or planetary encounter circumstances.
Orbital Elements at Epoch 2459000.5 (2020-May-31.0) TDB
Reference: JPL 16 (heliocentric ecliptic J2000)
Element | Value | Uncertainty (1-sigma) | Units |
e | .007779706984243954 | 6.0457e-08 | |
a | 3.149236259610148 | 3.951e-08 | au |
q | 3.124736124286224 | 2.0237e-07 | au |
i | 10.74541808508328 | 5.8353e-06 | deg |
node | 292.931050330611 | 3.5118e-05 | deg |
peri | 23.01793597422987 | 0.00041062 | deg |
M | 242.8783334726634 | 0.00041156 | deg |
tp | 2459664.611551220096 (2022-Mar-26.11155122) | 0.0023358 | TDB |
period | 2041.297443316625 5.59 | 3.8415e-05 1.052e-07 | d yr |
n | .176358423990913 | 3.3189e-09 | deg/d |
Q | 3.173736394934071 | 3.9817e-08 | au |
|
| | Orbit Determination Parameters
Additional Information
|
[ show covariance matrix ]
Physical Parameter Table
Parameter |
Symbol |
Value |
Units |
Sigma |
Reference |
Notes |
absolute magnitude |
H |
15.6 |
|
n/a |
MPO471165 |
|
|
300891 (2008 BO13) Discovered 2008-Jan-19 by Spacewatch at Kitt Peak |
Reference: 20111012/Numbers.arc | Last Updated: 2011-10-13 |
|
[ hide close-approach data ]
Close-Approach Data ...sorted by Date/Time (TDB)
|
Date/Time (TDB) |
Time Uncertainty (days_HH:MM) |
Body |
Nominal Distance (au) |
Minimum Distance (au) |
Maximum Distance (au) |
V-relative (km/s) |
V-infinity (km/s) |
JD (TDB) |
Time Uncertainty (minutes) |
Semi-major axis (km) |
Semi-minor axis (km) |
range-LOV angle (deg) |
N-sigma |
BP |
Orbit Ref. |
Reference |
Modified |
1917-Jul-10 15:00 |
00:06 |
Jupiter |
1.98288738348637 |
1.98288669623092 |
1.98288807074373 |
3.63899562166974 |
3.5196529213755 |
2421420.125052318 |
5.97871764403169 |
283.17117992823 |
27.9445525308821 |
-83.6916677994425 |
2634136.27443469 |
T |
16 |
CATAB v2.0f-lin.ifort 2020-Nov-11 19:29:11 |
2020-Nov-11 19:29 |
1927-Dec-06 14:57 |
00:06 |
Jupiter |
1.98063057518728 |
1.98062982941486 |
1.98063132096252 |
3.32707887891244 |
3.19595806589544 |
2425221.123235972 |
5.53255016626104 |
421.397912290156 |
30.5640764006196 |
85.8630731998528 |
2196666.99455965 |
T |
16 |
CATAB v2.0f-lin.ifort 2020-Nov-11 19:29:11 |
2020-Nov-11 19:29 |
1938-Jun-07 21:26 |
00:04 |
Jupiter |
1.97576410433707 |
1.97576346167296 |
1.97576474700118 |
4.54311856474848 |
4.4477537810038 |
2429057.392845151 |
4.3004858040649 |
120.880649732526 |
27.5878030681798 |
85.7425457366378 |
1737540.76901398 |
T |
16 |
CATAB v2.0f-lin.ifort 2020-Nov-11 19:29:11 |
2020-Nov-11 19:29 |
2012-Oct-02 07:16 |
< 00:01 |
Jupiter |
1.96977891520367 |
1.96977829611006 |
1.9697795342975 |
3.96867604230134 |
3.85880443618374 |
2456202.802979006 |
0.336682158796576 |
68.3915710239874 |
21.7395461083262 |
-72.5007503896498 |
2997562.24477186 |
T |
16 |
CATAB v2.0f-lin.ifort 2020-Nov-11 19:29:11 |
2020-Nov-11 19:29 |
2023-Mar-11 16:23 |
< 00:01 |
Jupiter |
1.9882033550339 |
1.98820263492295 |
1.98820407514496 |
3.14010279335205 |
3.00136591939844 |
2460015.182642291 |
0.622360426068145 |
61.2933054082209 |
22.5225432338482 |
-71.6711625886985 |
2241819.45091307 |
T |
16 |
CATAB v2.0f-lin.ifort 2020-Nov-11 19:29:11 |
2020-Nov-11 19:29 |
2033-Aug-25 06:12 |
00:01 |
Jupiter |
1.97555919866489 |
1.97555853352528 |
1.97555986380451 |
4.2581972522547 |
4.15628948836032 |
2463834.758444501 |
1.10823969153458 |
143.562207142448 |
29.5199561030813 |
87.0758018472126 |
2349702.73149517 |
T |
16 |
CATAB v2.0f-lin.ifort 2020-Nov-11 19:29:11 |
2020-Nov-11 19:29 |
2107-Dec-23 03:37 |
00:05 |
Jupiter |
1.96411238058468 |
1.96411177585397 |
1.96411298531751 |
4.25896013605589 |
4.15646994529717 |
2490981.650887909 |
5.25553935604474 |
343.73398381105 |
25.9356775143843 |
-89.9236477613254 |
2954165.55625115 |
T |
16 |
CATAB v2.0f-lin.ifort 2020-Nov-11 19:29:11 |
2020-Nov-11 19:29 |
2118-Jun-15 20:23 |
00:07 |
Jupiter |
1.98536823591479 |
1.98536744893063 |
1.98536902290144 |
3.1872757598442 |
3.05048551350652 |
2494809.349630590 |
6.63383050814707 |
261.120855158528 |
28.6208312901013 |
-82.9280557117065 |
2373445.7075102 |
T |
16 |
CATAB v2.0f-lin.ifort 2020-Nov-11 19:29:11 |
2020-Nov-11 19:29 |
2128-Nov-17 06:36 |
00:07 |
Jupiter |
1.98192511106321 |
1.98192443822968 |
1.98192578389686 |
3.91786652063034 |
3.8072208797089 |
2498616.775326204 |
6.82971519521387 |
510.039665364956 |
29.5051753878639 |
87.9371186655981 |
2200189.95326278 |
T |
16 |
CATAB v2.0f-lin.ifort 2020-Nov-11 19:29:11 |
2020-Nov-11 19:29 |
|
|